TimeEDT,TemperatureF,Dew PointF,Humidity,Sea Level PressureIn,VisibilityMPH,Wind Direction,Wind SpeedMPH,Gust SpeedMPH,PrecipitationIn,Events,Conditions,WindDirDegrees,DateUTC
12:51 AM,55.9,53.1,90,29.88,3.0,NE,9.2,-,0.00,,Light Drizzle,40,2013-06-07 04:51:00
1:10 AM,55.9,53.1,90,29.89,2.5,NE,9.2,-,0.00,,Light Drizzle,40,2013-06-07 05:10:00
1:22 AM,55.9,53.1,90,29.89,1.0,NNE,6.9,-,0.00,,Light Drizzle,20,2013-06-07 05:22:00
1:51 AM,55.9,53.1,90,29.88,1.0,NNE,6.9,-,0.00,,Light Drizzle,20,2013-06-07 05:51:00
2:51 AM,55.9,53.1,90,29.88,1.0,North,6.9,-,0.00,,Light Drizzle,10,2013-06-07 06:51:00
3:51 AM,55.9,53.1,90,29.87,1.0,NNE,5.8,-,0.00,,Light Drizzle,20,2013-06-07 07:51:00
4:41 AM,55.9,53.1,90,29.87,2.0,North,5.8,-,0.00,,Light Drizzle,10,2013-06-07 08:41:00
4:51 AM,55.9,53.1,90,29.86,2.0,NNE,6.9,-,0.00,,Light Drizzle,20,2013-06-07 08:51:00
5:20 AM,55.9,53.1,90,29.87,2.0,NNE,4.6,-,0.00,,Light Drizzle,30,2013-06-07 09:20:00
5:42 AM,55.9,53.1,90,29.87,1.5,NNE,5.8,-,0.00,,Light Drizzle,20,2013-06-07 09:42:00
5:51 AM,55.9,53.1,90,29.88,1.5,NE,4.6,-,0.00,,Light Drizzle,40,2013-06-07 09:51:00
6:51 AM,55.9,53.1,90,29.88,1.2,North,4.6,-,0.00,,Light Drizzle,360,2013-06-07 10:51:00
7:23 AM,55.9,53.1,90,29.89,1.2,NNE,5.8,-,0.00,,Light Drizzle,30,2013-06-07 11:23:00
7:51 AM,55.9,53.1,90,29.89,1.2,North,5.8,-,0.00,,Light Drizzle,10,2013-06-07 11:51:00
8:10 AM,55.9,53.1,90,29.89,1.2,North,6.9,-,0.00,,Light Drizzle,360,2013-06-07 12:10:00
8:51 AM,55.9,53.1,90,29.89,1.5,North,9.2,-,0.00,,Light Drizzle,10,2013-06-07 12:51:00
9:07 AM,55.9,53.1,90,29.89,1.5,North,9.2,-,0.00,,Light Drizzle,360,2013-06-07 13:07:00
9:51 AM,55.9,53.1,90,29.90,2.0,NNE,9.2,-,0.00,,Light Drizzle,20,2013-06-07 13:51:00
10:10 AM,57.0,54.0,89,29.90,2.0,NNE,8.1,-,0.00,,Light Drizzle,20,2013-06-07 14:10:00
10:20 AM,57.0,54.0,89,29.89,2.0,North,9.2,-,0.00,,Light Drizzle,360,2013-06-07 14:20:00
10:39 AM,57.0,54.0,89,29.89,3.0,North,8.1,-,0.00,,Light Drizzle,10,2013-06-07 14:39:00
10:51 AM,57.0,54.0,89,29.89,4.0,North,8.1,-,0.00,,Light Drizzle,360,2013-06-07 14:51:00
11:35 AM,57.0,54.0,89,29.90,8.0,North,9.2,-,0.00,,Overcast,360,2013-06-07 15:35:00
11:51 AM,57.0,53.1,87,29.90,10.0,NNE,6.9,-,0.00,,Overcast,20,2013-06-07 15:51:00
12:51 PM,57.9,53.1,84,29.90,10.0,NNE,6.9,-,N/A,,Overcast,30,2013-06-07 16:51:00
1:51 PM,60.1,54.0,80,29.88,10.0,North,10.4,-,N/A,,Overcast,10,2013-06-07 17:51:00
2:30 PM,60.1,54.0,80,29.88,10.0,North,9.2,-,N/A,,Overcast,360,2013-06-07 18:30:00
2:38 PM,59.0,54.0,83,29.88,10.0,North,8.1,-,N/A,,Overcast,360,2013-06-07 18:38:00
2:51 PM,59.0,54.0,83,29.88,10.0,North,9.2,-,N/A,,Overcast,10,2013-06-07 18:51:00
3:47 PM,57.2,53.6,88,29.89,4.0,North,10.4,-,N/A,,Overcast,360,2013-06-07 19:47:00
3:51 PM,57.0,54.0,89,29.89,4.0,North,10.4,-,N/A,,Overcast,10,2013-06-07 19:51:00
4:51 PM,57.0,53.1,87,29.88,4.0,North,8.1,-,N/A,,Overcast,10,2013-06-07 20:51:00
5:08 PM,57.9,53.1,84,29.89,10.0,NNE,6.9,-,N/A,,Overcast,20,2013-06-07 21:08:00
5:51 PM,59.0,53.1,81,29.88,10.0,North,10.4,-,N/A,,Overcast,10,2013-06-07 21:51:00
6:44 PM,57.9,52.0,81,29.88,10.0,North,9.2,-,N/A,,Overcast,350,2013-06-07 22:44:00
6:51 PM,57.9,52.0,81,29.88,10.0,North,10.4,-,N/A,,Overcast,360,2013-06-07 22:51:00
7:42 PM,57.9,52.0,81,29.89,10.0,NNW,6.9,-,N/A,,Overcast,340,2013-06-07 23:42:00
7:51 PM,57.9,53.1,84,29.89,10.0,NNW,6.9,-,N/A,,Overcast,340,2013-06-07 23:51:00
8:51 PM,57.9,53.1,84,29.91,9.0,North,4.6,-,N/A,,Overcast,360,2013-06-08 00:51:00
9:51 PM,57.0,54.0,89,29.92,4.0,NW,3.5,-,N/A,,Overcast,320,2013-06-08 01:51:00
10:22 PM,57.0,54.0,89,29.92,4.0,WNW,4.6,-,N/A,,Overcast,300,2013-06-08 02:22:00
10:41 PM,57.0,54.0,89,29.93,4.0,NW,3.5,-,N/A,,Overcast,310,2013-06-08 02:41:00
10:51 PM,57.0,54.0,89,29.93,5.0,WNW,4.6,-,N/A,,Overcast,300,2013-06-08 02:51:00
11:03 PM,57.0,54.0,89,29.92,5.0,West,4.6,-,N/A,,Overcast,270,2013-06-08 03:03:00
11:43 PM,57.0,54.0,89,29.92,5.0,West,3.5,-,N/A,,Overcast,270,2013-06-08 03:43:00
11:51 PM,57.0,54.0,89,29.92,5.0,West,3.5,-,N/A,,Overcast,270,2013-06-08 03:51:00